﻿測定場所 (Monitoring sites),日付 (Measurement date),時間 (Measurement time),線量率 最大値 (max) μGy/h,線量率 最小値 (min) μGy/h,線量率 平均値 (average) μGy/h,
大田 (Ota),2014-05-25,23:01～24:00,0.0454,0.0404,0.0430,
大田 (Ota),2014-05-25,22:01～23:00,0.0465,0.0407,0.0431,
大田 (Ota),2014-05-25,21:01～22:00,0.0463,0.0404,0.0430,
大田 (Ota),2014-05-25,20:01～21:00,0.0464,0.0407,0.0435,
大田 (Ota),2014-05-25,19:01～20:00,0.0466,0.0408,0.0438,
大田 (Ota),2014-05-25,18:01～19:00,0.0483,0.0413,0.0439,
大田 (Ota),2014-05-25,17:01～18:00,0.0465,0.0410,0.0436,
大田 (Ota),2014-05-25,16:01～17:00,0.0462,0.0396,0.0435,
大田 (Ota),2014-05-25,15:01～16:00,0.0468,0.0413,0.0437,
大田 (Ota),2014-05-25,14:01～15:00,0.0460,0.0406,0.0435,
大田 (Ota),2014-05-25,13:01～14:00,0.0462,0.0397,0.0433,
大田 (Ota),2014-05-25,12:01～13:00,0.0457,0.0407,0.0431,
大田 (Ota),2014-05-25,11:01～12:00,0.0466,0.0398,0.0435,
大田 (Ota),2014-05-25,10:01～11:00,0.0464,0.0398,0.0434,
大田 (Ota),2014-05-25,09:01～10:00,0.0468,0.0405,0.0430,
大田 (Ota),2014-05-25,08:01～09:00,0.0487,0.0408,0.0432,
大田 (Ota),2014-05-25,07:01～08:00,0.0463,0.0405,0.0433,
大田 (Ota),2014-05-25,06:01～07:00,0.0458,0.0400,0.0430,
大田 (Ota),2014-05-25,05:01～06:00,0.0457,0.0406,0.0431,
大田 (Ota),2014-05-25,04:01～05:00,0.0460,0.0394,0.0429,
大田 (Ota),2014-05-25,03:01～04:00,0.0470,0.0407,0.0429,
大田 (Ota),2014-05-25,02:01～03:00,0.0470,0.0389,0.0431,
大田 (Ota),2014-05-25,01:01～02:00,0.0468,0.0389,0.0431,
大田 (Ota),2014-05-25,00:01～01:00,0.0466,0.0400,0.0430,
大田 (Ota),2014-05-24,23:01～24:00,0.0465,0.0398,0.0432,
大田 (Ota),2014-05-24,22:01～23:00,0.0460,0.0393,0.0430,
大田 (Ota),2014-05-24,21:01～22:00,0.0456,0.0397,0.0426,
大田 (Ota),2014-05-24,20:01～21:00,0.0462,0.0396,0.0427,
大田 (Ota),2014-05-24,19:01～20:00,0.0457,0.0394,0.0429,
大田 (Ota),2014-05-24,18:01～19:00,0.0472,0.0400,0.0432,
大田 (Ota),2014-05-24,17:01～18:00,0.0463,0.0397,0.0432,
大田 (Ota),2014-05-24,16:01～17:00,0.0465,0.0391,0.0429,
大田 (Ota),2014-05-24,15:01～16:00,0.0473,0.0405,0.0432,
大田 (Ota),2014-05-24,14:01～15:00,0.0457,0.0392,0.0429,
大田 (Ota),2014-05-24,13:01～14:00,0.0460,0.0389,0.0429,
大田 (Ota),2014-05-24,12:01～13:00,0.0455,0.0399,0.0427,
大田 (Ota),2014-05-24,11:01～12:00,0.0469,0.0401,0.0429,
大田 (Ota),2014-05-24,10:01～11:00,0.0458,0.0401,0.0430,
大田 (Ota),2014-05-24,09:01～10:00,0.0471,0.0406,0.0430,
大田 (Ota),2014-05-24,08:01～09:00,0.0474,0.0391,0.0429,
大田 (Ota),2014-05-24,07:01～08:00,0.0468,0.0394,0.0431,
大田 (Ota),2014-05-24,06:01～07:00,0.0464,0.0397,0.0431,
大田 (Ota),2014-05-24,05:01～06:00,0.0452,0.0407,0.0432,
大田 (Ota),2014-05-24,04:01～05:00,0.0457,0.0399,0.0432,
大田 (Ota),2014-05-24,03:01～04:00,0.0473,0.0398,0.0432,
大田 (Ota),2014-05-24,02:01～03:00,0.0469,0.0397,0.0427,
大田 (Ota),2014-05-24,01:01～02:00,0.0454,0.0397,0.0425,
大田 (Ota),2014-05-24,00:01～01:00,0.0447,0.0392,0.0419,
大田 (Ota),2014-05-23,23:01～24:00,0.0448,0.0377,0.0421,
大田 (Ota),2014-05-23,22:01～23:00,0.0455,0.0386,0.0425,
大田 (Ota),2014-05-23,21:01～22:00,0.0456,0.0398,0.0424,
大田 (Ota),2014-05-23,20:01～21:00,0.0457,0.0394,0.0426,
大田 (Ota),2014-05-23,19:01～20:00,0.0455,0.0393,0.0423,
大田 (Ota),2014-05-23,18:01～19:00,0.0451,0.0392,0.0425,
大田 (Ota),2014-05-23,17:01～18:00,0.0460,0.0393,0.0426,
大田 (Ota),2014-05-23,16:01～17:00,0.0458,0.0393,0.0426,
大田 (Ota),2014-05-23,15:01～16:00,0.0457,0.0397,0.0424,
大田 (Ota),2014-05-23,14:01～15:00,0.0460,0.0390,0.0426,
大田 (Ota),2014-05-23,13:01～14:00,0.0459,0.0397,0.0424,
大田 (Ota),2014-05-23,12:01～13:00,0.0453,0.0397,0.0423,
大田 (Ota),2014-05-23,11:01～12:00,0.0456,0.0383,0.0419,
大田 (Ota),2014-05-23,10:01～11:00,0.0465,0.0395,0.0423,
大田 (Ota),2014-05-23,09:01～10:00,0.0461,0.0402,0.0424,
大田 (Ota),2014-05-23,08:01～09:00,0.0455,0.0390,0.0422,
大田 (Ota),2014-05-23,07:01～08:00,0.0452,0.0397,0.0425,
大田 (Ota),2014-05-23,06:01～07:00,0.0457,0.0387,0.0425,
大田 (Ota),2014-05-23,05:01～06:00,0.0452,0.0397,0.0422,
大田 (Ota),2014-05-23,04:01～05:00,0.0457,0.0400,0.0424,
大田 (Ota),2014-05-23,03:01～04:00,0.0446,0.0389,0.0420,
大田 (Ota),2014-05-23,02:01～03:00,0.0449,0.0389,0.0417,
大田 (Ota),2014-05-23,01:01～02:00,0.0456,0.0389,0.0425,
大田 (Ota),2014-05-23,00:01～01:00,0.0454,0.0398,0.0424,
大田 (Ota),2014-05-22,23:01～24:00,0.0464,0.0395,0.0427,
大田 (Ota),2014-05-22,22:01～23:00,0.0482,0.0405,0.0437,
大田 (Ota),2014-05-22,21:01～22:00,0.0505,0.0423,0.0465,
大田 (Ota),2014-05-22,20:01～21:00,0.0546,0.0476,0.0508,
大田 (Ota),2014-05-22,19:01～20:00,0.0491,0.0399,0.0434,
大田 (Ota),2014-05-22,18:01～19:00,0.0472,0.0401,0.0432,
大田 (Ota),2014-05-22,17:01～18:00,0.0475,0.0414,0.0442,
大田 (Ota),2014-05-22,16:01～17:00,0.0526,0.0434,0.0477,
大田 (Ota),2014-05-22,15:01～16:00,0.0561,0.0434,0.0501,
大田 (Ota),2014-05-22,14:01～15:00,0.0518,0.0437,0.0472,
大田 (Ota),2014-05-22,13:01～14:00,0.0631,0.0470,0.0552,
大田 (Ota),2014-05-22,12:01～13:00,0.0690,0.0494,0.0605,
大田 (Ota),2014-05-22,11:01～12:00,0.0499,0.0410,0.0444,
大田 (Ota),2014-05-22,10:01～11:00,0.0455,0.0398,0.0428,
大田 (Ota),2014-05-22,09:01～10:00,0.0456,0.0384,0.0426,
大田 (Ota),2014-05-22,08:01～09:00,0.0463,0.0393,0.0427,
大田 (Ota),2014-05-22,07:01～08:00,0.0463,0.0385,0.0430,
大田 (Ota),2014-05-22,06:01～07:00,0.0477,0.0398,0.0433,
大田 (Ota),2014-05-22,05:01～06:00,0.0466,0.0391,0.0427,
大田 (Ota),2014-05-22,04:01～05:00,0.0457,0.0392,0.0427,
大田 (Ota),2014-05-22,03:01～04:00,0.0457,0.0392,0.0430,
大田 (Ota),2014-05-22,02:01～03:00,0.0465,0.0401,0.0428,
大田 (Ota),2014-05-22,01:01～02:00,0.0458,0.0382,0.0427,
大田 (Ota),2014-05-22,00:01～01:00,0.0456,0.0399,0.0427,
大田 (Ota),2014-05-21,23:01～24:00,0.0459,0.0395,0.0424,
大田 (Ota),2014-05-21,22:01～23:00,0.0455,0.0390,0.0424,
大田 (Ota),2014-05-21,21:01～22:00,0.0463,0.0404,0.0429,
大田 (Ota),2014-05-21,20:01～21:00,0.0465,0.0390,0.0427,
大田 (Ota),2014-05-21,19:01～20:00,0.0462,0.0394,0.0428,
大田 (Ota),2014-05-21,18:01～19:00,0.0457,0.0405,0.0428,
大田 (Ota),2014-05-21,17:01～18:00,0.0464,0.0381,0.0430,
大田 (Ota),2014-05-21,16:01～17:00,0.0455,0.0393,0.0425,
大田 (Ota),2014-05-21,15:01～16:00,0.0487,0.0407,0.0436,
大田 (Ota),2014-05-21,14:01～15:00,0.0487,0.0397,0.0445,
大田 (Ota),2014-05-21,13:01～14:00,0.0510,0.0449,0.0477,
大田 (Ota),2014-05-21,12:01～13:00,0.0538,0.0462,0.0503,
大田 (Ota),2014-05-21,11:01～12:00,0.0559,0.0461,0.0511,
大田 (Ota),2014-05-21,10:01～11:00,0.0546,0.0446,0.0486,
大田 (Ota),2014-05-21,09:01～10:00,0.0660,0.0507,0.0587,
大田 (Ota),2014-05-21,08:01～09:00,0.0681,0.0599,0.0635,
大田 (Ota),2014-05-21,07:01～08:00,0.0671,0.0576,0.0612,
大田 (Ota),2014-05-21,06:01～07:00,0.0620,0.0531,0.0576,
大田 (Ota),2014-05-21,05:01～06:00,0.0593,0.0502,0.0548,
大田 (Ota),2014-05-21,04:01～05:00,0.0599,0.0502,0.0545,
大田 (Ota),2014-05-21,03:01～04:00,0.0625,0.0538,0.0577,
大田 (Ota),2014-05-21,02:01～03:00,0.0621,0.0523,0.0571,
大田 (Ota),2014-05-21,01:01～02:00,0.0598,0.0505,0.0561,
大田 (Ota),2014-05-21,00:01～01:00,0.0615,0.0509,0.0557,
大田 (Ota),2014-05-20,23:01～24:00,0.0543,0.0423,0.0478,
大田 (Ota),2014-05-20,22:01～23:00,0.0470,0.0414,0.0445,
大田 (Ota),2014-05-20,21:01～22:00,0.0475,0.0423,0.0447,
大田 (Ota),2014-05-20,20:01～21:00,0.0482,0.0415,0.0446,
大田 (Ota),2014-05-20,19:01～20:00,0.0484,0.0422,0.0450,
大田 (Ota),2014-05-20,18:01～19:00,0.0483,0.0408,0.0447,
大田 (Ota),2014-05-20,17:01～18:00,0.0486,0.0414,0.0447,
大田 (Ota),2014-05-20,16:01～17:00,0.0471,0.0416,0.0444,
大田 (Ota),2014-05-20,15:01～16:00,0.0482,0.0411,0.0449,
大田 (Ota),2014-05-20,14:01～15:00,0.0480,0.0415,0.0449,
大田 (Ota),2014-05-20,13:01～14:00,0.0497,0.0414,0.0445,
大田 (Ota),2014-05-20,12:01～13:00,0.0492,0.0417,0.0451,
大田 (Ota),2014-05-20,11:01～12:00,0.0484,0.0420,0.0451,
大田 (Ota),2014-05-20,10:01～11:00,0.0504,0.0414,0.0449,
大田 (Ota),2014-05-20,09:01～10:00,0.0485,0.0414,0.0444,
大田 (Ota),2014-05-20,08:01～09:00,0.0473,0.0422,0.0450,
大田 (Ota),2014-05-20,07:01～08:00,0.0489,0.0411,0.0444,
大田 (Ota),2014-05-20,06:01～07:00,0.0481,0.0419,0.0448,
大田 (Ota),2014-05-20,05:01～06:00,0.0486,0.0415,0.0448,
大田 (Ota),2014-05-20,04:01～05:00,0.0492,0.0411,0.0448,
大田 (Ota),2014-05-20,03:01～04:00,0.0491,0.0422,0.0447,
大田 (Ota),2014-05-20,02:01～03:00,0.0480,0.0413,0.0450,
大田 (Ota),2014-05-20,01:01～02:00,0.0493,0.0416,0.0448,
大田 (Ota),2014-05-20,00:01～01:00,0.0484,0.0417,0.0449,
大田 (Ota),2014-05-19,23:01～24:00,0.0479,0.0419,0.0448,
大田 (Ota),2014-05-19,22:01～23:00,0.0489,0.0411,0.0446,
大田 (Ota),2014-05-19,21:01～22:00,0.0476,0.0417,0.0446,
大田 (Ota),2014-05-19,20:01～21:00,0.0482,0.0398,0.0449,
大田 (Ota),2014-05-19,19:01～20:00,0.0481,0.0413,0.0446,
大田 (Ota),2014-05-19,18:01～19:00,0.0483,0.0415,0.0446,
大田 (Ota),2014-05-19,17:01～18:00,0.0475,0.0396,0.0445,
大田 (Ota),2014-05-19,16:01～17:00,0.0489,0.0412,0.0447,
大田 (Ota),2014-05-19,15:01～16:00,0.0482,0.0420,0.0449,
大田 (Ota),2014-05-19,14:01～15:00,0.0483,0.0412,0.0448,
大田 (Ota),2014-05-19,13:01～14:00,0.0475,0.0416,0.0445,
大田 (Ota),2014-05-19,12:01～13:00,0.0474,0.0410,0.0442,
大田 (Ota),2014-05-19,11:01～12:00,0.0479,0.0414,0.0445,
大田 (Ota),2014-05-19,10:01～11:00,0.0481,0.0393,0.0440,
大田 (Ota),2014-05-19,09:01～10:00,0.0466,0.0404,0.0445,
大田 (Ota),2014-05-19,08:01～09:00,0.0475,0.0416,0.0446,
大田 (Ota),2014-05-19,07:01～08:00,0.0478,0.0398,0.0446,
大田 (Ota),2014-05-19,06:01～07:00,0.0482,0.0410,0.0446,
大田 (Ota),2014-05-19,05:01～06:00,0.0472,0.0408,0.0446,
大田 (Ota),2014-05-19,04:01～05:00,0.0472,0.0417,0.0447,
大田 (Ota),2014-05-19,03:01～04:00,0.0495,0.0410,0.0446,
大田 (Ota),2014-05-19,02:01～03:00,0.0465,0.0416,0.0443,
大田 (Ota),2014-05-19,01:01～02:00,0.0478,0.0417,0.0450,
大田 (Ota),2014-05-19,00:01～01:00,0.0497,0.0413,0.0447,
